Location: Catenanuova
(37.5690°N, 14.6870°E)
Time: 11:19:52
(UTC+02:00)

ISS - Visible Passes

Search period start: 21 May 2024 00:00
Search period end: 31 May 2024 00:00
Orbit: 409 x 414 km, 51.6° (Epoch: 21 May)

Date Brightness Start Highest point End Pass type
(mag) Time Alt. Az. Time Alt. Az. Time Alt. Az.
21 May -1.2 22:37:29 10° NNW 22:39:34 15° NNE 22:40:03 15° NE visible
22 May -0.9 21:48:04 10° N 21:49:18 12° NNE 21:50:32 10° NE visible
22 May -1.1 23:23:20 10° NW 23:24:32 20° NNW 23:24:32 20° NNW visible
23 May -2.2 22:33:28 10° NNW 22:36:14 29° NNE 22:36:14 29° NNE visible
24 May -1.6 21:43:41 10° NNW 21:46:11 19° NNE 21:47:54 14° ENE visible
24 May -1.1 23:19:46 10° WNW 23:20:41 17° WNW 23:20:41 17° WNW visible
25 May -1.2 20:53:58 10° NNW 20:55:47 14° NNE 20:57:36 10° NE visible
25 May -3.2 22:29:35 10° NW 22:32:20 57° NNW 22:32:20 57° NNW visible
26 May -2.9 21:39:29 10° NW 21:42:38 40° NE 21:44:00 26° E visible
26 May -0.7 23:16:40 10° W 23:16:46 10° W 23:16:46 10° W visible
27 May -2.0 20:49:28 10° NNW 20:52:16 24° NNE 20:55:03 10° E visible
27 May -2.5 22:25:52 10° WNW 22:28:26 33° WSW 22:28:26 33° WSW visible
28 May -3.8 21:35:24 10° NW 21:38:42 72° SW 21:40:05 31° SE visible
29 May -3.5 20:45:04 10° NW 20:48:21 57° NE 20:51:36 10° ESE visible
29 May -1.2 22:23:06 10° W 22:24:32 13° SW 22:24:32 13° SW visible
30 May -2.0 21:31:38 10° WNW 21:34:22 24° SW 21:36:13 15° S visible
